"Pseudo-MPEC" for ZTF03cI

Created 2019 Jun 13 10:09:35 UT using Find_Orb

Click here for an explanation of pseudo-MPECs

 
 Astrometry: 
     ZTF03cI  C2019 06 06.38958018 27 26.71 -01 45 49.6    ~68I7 20.70rUNEOCPI41
     ZTF03cI  C2019 06 06.39229118 27 26.73 -01 45 50.7    ~68I7 20.44rUNEOCPI41
     ZTF03cI  C2019 06 06.39635018 27 26.71 -01 45 52.1    ~68I7 20.73rUNEOCPI41
     ZTF03cI  C2019 06 06.40674018 27 26.66 -01 45 54.8    ~68I7 20.41rUNEOCPI41
     ZTF03cI  C2019 06 06.41125018 27 26.64 -01 45 56.4    ~68I7 20.86rUNEOCPI41
     ZTF03cI  C2019 06 06.41531018 27 26.61 -01 45 58.1    ~68I7 20.53rUNEOCPI41

Station data:
(I41) Palomar Mountain--ZTF  (N33.357340 W116.859780)  US/California. 1.2-m
   f/2.44 Oschin Schmidt + CCD.

Orbital elements:  ZTF03cI
   Perihelion 2019 Aug 26.255351 +/- 52.2 TT =  6:07:42 (JD 2458721.755351)
Epoch 2019 Jun  6.0 TT = JDT 2458640.5   Earth MOID: 0.3609   Ma: 0.0218
M 339.69762831 +/- 24               (J2000 ecliptic)          AutoNEOCP
n   0.24985888 +/- 0.268            Peri.  198.23976 +/- 80
a   2.49654566 +/- 1.79             Node   118.50870 +/- 39
e   0.4519202 +/- 0.249             Incl.   13.97664 +/- 7
P   3.94                   H 20.0   G  0.15   U 11.9  SR
q 1.36830623 +/- 0.525    Q 3.62478508 +/- 35
From 6 observations 2019 June 6 (37.1 min); mean residual 0".20
Residuals in arcseconds: 
190606 I41  .30-  .12+    190606 I41  .14+  .25-    190606 I41  .06+  .15+    
190606 I41  .18+  .12-    190606 I41  .07+  .33+    190606 I41  .13-  .27-    

Ephemerides (geocentric):
Date (UTC) HH   RA              Dec         delta   r     elong  mag " sig PA
---- -- -- --  -------------   -----------  ------ ------ -----  --- ---- ---
2019 06 13 10  18 26 52.306   -02 37 12.45  .56279 1.5426 154.5 20.6  44d   1
2019 06 13 11  18 26 51.878   -02 37 36.34  .56252 1.5425 154.5 20.6  45d   2
2019 06 13 12  18 26 51.447   -02 38 00.30  .56225 1.5423 154.6 20.6  46d   2
2019 06 13 13  18 26 51.013   -02 38 24.33  .56197 1.5421 154.6 20.6  46d   1
2019 06 13 14  18 26 50.577   -02 38 48.43  .56170 1.5419 154.6 20.6  46d   1
2019 06 13 15  18 26 50.138   -02 39 12.59  .56143 1.5418 154.6 20.6  46d   1
2019 06 13 16  18 26 49.697   -02 39 36.83  .56116 1.5416 154.7 20.6  47d   1
2019 06 13 17  18 26 49.253   -02 40 01.14  .56088 1.5414 154.7 20.6  47d   1
2019 06 13 18  18 26 48.807   -02 40 25.52  .56061 1.5412 154.7 20.6  47d   0
2019 06 13 19  18 26 48.359   -02 40 49.96  .56034 1.5411 154.8 20.6  47d   0
2019 06 13 20  18 26 47.907   -02 41 14.48  .56007 1.5409 154.8 20.6  47d   0
2019 06 13 21  18 26 47.454   -02 41 39.07  .55980 1.5407 154.8 20.6  47d   0
2019 06 13 22  18 26 46.998   -02 42 03.72  .55952 1.5405 154.8 20.6  47d   0
2019 06 13 23  18 26 46.539   -02 42 28.45  .55925 1.5404 154.9 20.6  47d   0
2019 06 14 00  18 26 46.078   -02 42 53.24  .55898 1.5402 154.9 20.6  47d   0
2019 06 14 01  18 26 45.615   -02 43 18.11  .55871 1.5400 154.9 20.6  47d   0
2019 06 14 02  18 26 45.149   -02 43 43.04  .55844 1.5398 155.0 20.5  47d   0
2019 06 14 03  18 26 44.681   -02 44 08.05  .55817 1.5396 155.0 20.5  47d   0
2019 06 14 04  18 26 44.210   -02 44 33.12  .55790 1.5395 155.0 20.5  47d   0
2019 06 14 05  18 26 43.736   -02 44 58.27  .55763 1.5393 155.1 20.5  47d   0
2019 06 14 06  18 26 43.261   -02 45 23.49  .55736 1.5391 155.1 20.5  47d   0
2019 06 14 07  18 26 42.783   -02 45 48.77  .55710 1.5389 155.1 20.5  47d   0
2019 06 14 08  18 26 42.302   -02 46 14.13  .55683 1.5388 155.1 20.5  48d   0
2019 06 14 09  18 26 41.819   -02 46 39.56  .55656 1.5386 155.2 20.5  48d   0
2019 06 14 10  18 26 41.333   -02 47 05.05  .55629 1.5384 155.2 20.5  48d   0
2019 06 14 11  18 26 40.845   -02 47 30.62  .55602 1.5382 155.2 20.5  48d   0
2019 06 14 12  18 26 40.355   -02 47 56.26  .55575 1.5381 155.3 20.5  48d   0
2019 06 14 13  18 26 39.862   -02 48 21.97  .55549 1.5379 155.3 20.5  48d   0
2019 06 14 14  18 26 39.367   -02 48 47.75  .55522 1.5377 155.3 20.5  48d   0
2019 06 14 15  18 26 38.869   -02 49 13.60  .55495 1.5375 155.3 20.5  49d   0
2019 06 14 16  18 26 38.369   -02 49 39.52  .55469 1.5374 155.4 20.5  49d   0
2019 06 14 17  18 26 37.867   -02 50 05.52  .55442 1.5372 155.4 20.5  49d   0
2019 06 14 18  18 26 37.362   -02 50 31.58  .55415 1.5370 155.4 20.5  49d   0
2019 06 14 19  18 26 36.854   -02 50 57.71  .55389 1.5368 155.5 20.5  49d   0
2019 06 14 20  18 26 36.345   -02 51 23.92  .55362 1.5367 155.5 20.5  49d   0
2019 06 14 21  18 26 35.832   -02 51 50.20  .55336 1.5365 155.5 20.5  49d   0
2019 06 14 22  18 26 35.318   -02 52 16.54  .55309 1.5363 155.5 20.5  49d   0
2019 06 14 23  18 26 34.801   -02 52 42.96  .55283 1.5361 155.6 20.5  49d   0
2019 06 15 00  18 26 34.281   -02 53 09.45  .55256 1.5360 155.6 20.5  49d   0
2019 06 15 01  18 26 33.760   -02 53 36.02  .55230 1.5358 155.6 20.5  49d   0
2019 06 15 02  18 26 33.236   -02 54 02.65  .55203 1.5356 155.7 20.5  49d   0
2019 06 15 03  18 26 32.709   -02 54 29.35  .55177 1.5354 155.7 20.5  49d   1
2019 06 15 04  18 26 32.180   -02 54 56.13  .55151 1.5353 155.7 20.5  50d   1
2019 06 15 05  18 26 31.649   -02 55 22.98  .55124 1.5351 155.7 20.5  50d   1
2019 06 15 06  18 26 31.115   -02 55 49.90  .55098 1.5349 155.8 20.5  51d   2
2019 06 15 07  18 26 30.579   -02 56 16.89  .55072 1.5347 155.8 20.5  52d   2
2019 06 15 08  18 26 30.040   -02 56 43.95  .55046 1.5346 155.8 20.5  52d   2
2019 06 15 09  18 26 29.500   -02 57 11.08  .55019 1.5344 155.9 20.5  52d   2